AP893 Weather Reports


time (UTC)temp
C
wind
direction
speed
KPH
gust
KPH
rain 1hr
cm
rain 24hr
cm
rain mn
cm
humidity
%
barometer
mb
20260504034009 12 353 0.0 0.0 0.00 0.00 0.00 84 1014.7
20260504033009 13 353 0.0 0.0 0.00 0.00 0.00 83 1014.6
20260504032009 13 353 0.0 9.7 0.00 0.00 0.00 82 1014.6
20260504031010 13 24 0.0 0.0 0.00 0.00 0.00 81 1014.5
20260504030009 13 24 0.0 0.0 0.00 0.00 0.00 80 1014.2
20260504024009 14 320 4.8 11.3 0.00 0.00 0.00 77 1013.9
20260504023010 14 342 3.2 11.3 0.00 0.00 0.00 75 1013.9
20260504022009 15 0 3.2 14.5 0.00 0.00 0.00 74 1013.8
20260504021009 15 246 1.6 14.5 0.00 0.00 0.00 72 1013.9
20260504020009 15 347 1.6 11.3 0.00 0.00 0.00 71 1013.9
20260504015009 15 233 0.0 11.3 0.00 0.00 0.00 70 1013.9
20260504014010 16 303 3.2 8.0 0.00 0.00 0.00 70 1013.8
20260504013011 16 12 4.8 14.5 0.00 0.00 0.00 68 1013.9
20260504012009 16 329 1.6 11.3 0.00 0.00 0.00 67 1014.0
20260504011009 16 16 1.6 12.9 0.00 0.00 0.00 66 1013.9
20260504010010 16 268 3.2 14.5 0.00 0.00 0.00 65 1014.0
20260504005009 17 348 1.6 19.3 0.00 0.00 0.00 64 1013.8
20260504004009 17 2 3.2 12.9 0.00 0.00 0.00 61 1013.8
20260504002010 18 13 0.0 12.9 0.00 0.00 0.00 59 1013.8
20260504001010 18 340 8.0 20.9 0.00 0.00 0.00 58 1013.9
20260504000011 18 19 3.2 16.1 0.00 0.00 0.00 61 1013.7
20260503235010 18 272 3.2 12.9 0.00 0.00 0.00 59 1013.6
20260503234011 18 344 3.2 16.1 0.00 0.00 0.00 61 1013.6
20260503233010 18 7 11.3 24.1 0.00 0.00 0.00 59 1013.8
20260503232010 17 356 4.8 16.1 0.00 0.00 0.00 61 1013.8
20260503231010 18 355 4.8 12.9 0.00 0.00 0.00 57 1013.8
20260503230010 18 263 3.2 11.3 0.00 0.00 0.00 59 1013.8
20260503225010 17 1 0.0 14.5 0.00 0.00 0.00 61 1013.9
20260503224010 18 24 3.2 16.1 0.00 0.00 0.00 61 1014.0
20260503223010 17 336 4.8 19.3 0.00 0.00 0.00 64 1014.0
20260503222010 17 340 1.6 14.5 0.00 0.00 0.00 64 1014.2
20260503221010 17 259 3.2 19.3 0.00 0.00 0.00 65 1014.5
20260503220010 17 3 8.0 14.5 0.00 0.00 0.00 63 1014.5
20260503215011 17 9 1.6 14.5 0.00 0.00 0.00 65 1014.5
20260503214010 17 13 8.0 16.1 0.00 0.00 0.00 64 1014.5
20260503213010 17 1 8.0 20.9 0.00 0.00 0.00 66 1014.2
20260503212010 17 356 8.0 19.3 0.00 0.00 0.00 66 1014.2
20260503211010 18 338 8.0 19.3 0.00 0.00 0.00 64 1014.1
20260503210010 17 335 4.8 19.3 0.00 0.00 0.00 67 1014.1
20260503204009 17 339 8.0 20.9 0.00 0.00 0.00 66 1014.2
20260503203010 17 341 9.7 20.9 0.00 0.00 0.00 68 1014.1
20260503202010 17 320 1.6 12.9 0.00 0.00 0.00 69 1014.2
20260503201010 17 307 8.0 19.3 0.00 0.00 0.00 70 1014.1
20260503200011 16 1 0.0 22.5 0.00 0.00 0.00 73 1014.2
20260503195009 17 347 9.7 20.9 0.00 0.00 0.00 72 1014.4
20260503194010 17 340 4.8 16.1 0.00 0.00 0.00 72 1014.2
20260503193009 17 313 6.4 20.9 0.00 0.00 0.00 73 1014.2
20260503191010 16 333 4.8 16.1 0.00 0.00 0.00 74 1014.4
20260503190009 16 138 3.2 16.1 0.00 0.00 0.00 77 1014.4
20260503185010 16 0 3.2 16.1 0.00 0.00 0.00 78 1014.5
20260503184009 15 4 8.0 16.1 0.00 0.00 0.00 81 1014.4
20260503183010 15 11 4.8 20.9 0.00 0.00 0.00 83 1014.5
20260503182010 15 348 3.2 16.1 0.00 0.00 0.00 86 1014.5
20260503181009 14 5 8.0 19.3 0.00 0.00 0.00 85 1014.5
20260503180009 15 0 1.6 16.1 0.00 0.00 0.00 86 1014.4
20260503175010 14 357 8.0 14.5 0.00 0.00 0.00 88 1014.4
20260503172009 13 357 8.0 12.9 0.00 0.00 0.00 92 1014.0
20260503171010 13 14 0.0 12.9 0.00 0.00 0.00 96 1014.0
20260503151009 12 337 4.8 11.3 0.00 0.00 0.00 97 1013.4
20260503131010 11 150 0.0 0.0 0.00 0.00 0.00 98 1011.6
20260503081010 12 109 0.0 0.0 0.00 0.00 0.00 97 1013.0
20260503071010 12 109 0.0 0.0 0.00 0.00 0.00 96 1013.5
20260503055010 13 0 0.0 0.0 0.00 0.00 0.00 94 1013.9
20260503054009 13 0 0.0 0.0 0.00 0.00 0.00 93 1014.0
20260503053010 13 0 0.0 0.0 0.00 0.00 0.00 92 1013.9
20260503052010 13 0 0.0 0.0 0.00 0.00 0.00 92 1013.9
20260503051010 14 0 0.0 0.0 0.00 0.00 0.00 91 1014.0
20260503045011 15 0 0.0 0.0 0.00 0.00 0.00 89 1014.0
20260503043010 15 0 0.0 0.0 0.00 0.00 0.00 86 1013.9
20260503042010 15 0 0.0 0.0 0.00 0.00 0.00 84 1013.8
20260503041009 16 0 0.0 0.0 0.00 0.00 0.00 82 1013.8
20260503040010 16 0 0.0 0.0 0.00 0.00 0.00 80 1013.8